Year,Month,Day,Hour,Minute,Value (Times are PST for temperature in C)
2017,03,20,00,00,1.50
2017,03,20,00,01,1.50
2017,03,20,00,02,1.50
2017,03,20,00,03,1.40
2017,03,20,00,04,1.40
2017,03,20,00,05,1.40
2017,03,20,00,06,1.30
2017,03,20,00,07,1.30
2017,03,20,00,08,1.30
2017,03,20,00,09,1.30
2017,03,20,00,10,1.30
2017,03,20,00,11,1.30
2017,03,20,00,12,1.30
2017,03,20,00,13,1.30
2017,03,20,00,14,1.30
2017,03,20,00,15,1.20
2017,03,20,00,16,1.20
2017,03,20,00,17,1.20
2017,03,20,00,18,1.20
2017,03,20,00,19,1.20
2017,03,20,00,20,1.20
2017,03,20,00,21,1.20
2017,03,20,00,22,1.20
2017,03,20,00,23,1.20
2017,03,20,00,24,1.20
2017,03,20,00,25,1.20
2017,03,20,00,26,1.20
2017,03,20,00,27,1.20
2017,03,20,00,28,1.20
2017,03,20,00,29,1.20
2017,03,20,00,30,1.20
2017,03,20,00,31,1.20
2017,03,20,00,32,1.20
2017,03,20,00,33,1.20
2017,03,20,00,34,1.20
2017,03,20,00,35,1.20
2017,03,20,00,36,1.20
2017,03,20,00,37,1.20
2017,03,20,00,38,1.20
2017,03,20,00,39,1.20
2017,03,20,00,40,1.20
2017,03,20,00,41,1.20
2017,03,20,00,42,1.20
2017,03,20,00,43,1.20
2017,03,20,00,44,1.20
2017,03,20,00,45,1.20
2017,03,20,00,46,1.20
2017,03,20,00,47,1.20
2017,03,20,00,48,1.20
2017,03,20,00,49,1.20
2017,03,20,00,50,1.20
2017,03,20,00,51,1.20
2017,03,20,00,52,1.20
2017,03,20,00,53,1.20
2017,03,20,00,54,1.20
2017,03,20,00,55,1.20
2017,03,20,00,56,1.20
2017,03,20,00,57,1.20
2017,03,20,00,58,1.20
2017,03,20,00,59,1.20
2017,03,20,01,00,1.20
2017,03,20,01,01,1.10
2017,03,20,01,02,1.10
2017,03,20,01,03,1.10
2017,03,20,01,04,1.10
2017,03,20,01,05,1.10
2017,03,20,01,06,1.10
2017,03,20,01,07,1.10
2017,03,20,01,08,1.10
2017,03,20,01,09,1.10
2017,03,20,01,10,1.10
2017,03,20,01,11,1.10
2017,03,20,01,12,1.10
2017,03,20,01,13,1.10
2017,03,20,01,14,1.20
2017,03,20,01,15,1.20
2017,03,20,01,16,1.20
2017,03,20,01,17,1.20
2017,03,20,01,18,1.20
2017,03,20,01,19,1.20
2017,03,20,01,20,1.20
2017,03,20,01,21,1.20
2017,03,20,01,22,1.20
2017,03,20,01,23,1.20
2017,03,20,01,24,1.20
2017,03,20,01,25,1.20
2017,03,20,01,26,1.20
2017,03,20,01,27,1.20
2017,03,20,01,28,1.20
2017,03,20,01,29,1.20
2017,03,20,01,30,1.10
2017,03,20,01,31,1.10
2017,03,20,01,32,1.10
2017,03,20,01,33,1.10
2017,03,20,01,34,1.10
2017,03,20,01,35,1.10
2017,03,20,01,36,1.10
2017,03,20,01,37,1.10
2017,03,20,01,38,1.10
2017,03,20,01,39,1.10
2017,03,20,01,40,1.10
2017,03,20,01,41,1.10
2017,03,20,01,42,1.10
2017,03,20,01,43,1.10
2017,03,20,01,44,1.10
2017,03,20,01,45,1.10
2017,03,20,01,46,1.10
2017,03,20,01,47,1.00
2017,03,20,01,48,1.00
2017,03,20,01,49,1.00
2017,03,20,01,50,1.00
2017,03,20,01,51,0.90
2017,03,20,01,52,0.90
2017,03,20,01,53,0.90
2017,03,20,01,54,0.90
2017,03,20,01,55,0.90
2017,03,20,01,56,0.90
2017,03,20,01,57,0.80
2017,03,20,01,58,0.80
2017,03,20,01,59,0.80
2017,03,20,02,00,0.80
2017,03,20,02,01,0.80
2017,03,20,02,02,0.70
2017,03,20,02,03,0.70
2017,03,20,02,04,0.70
2017,03,20,02,05,0.60
2017,03,20,02,06,0.60
2017,03,20,02,07,0.50
2017,03,20,02,08,0.40
2017,03,20,02,09,0.40
2017,03,20,02,10,0.40
2017,03,20,02,11,0.30
2017,03,20,02,12,0.30
2017,03,20,02,13,0.30
2017,03,20,02,14,0.30
2017,03,20,02,15,0.20
2017,03,20,02,16,0.20
2017,03,20,02,17,0.10
2017,03,20,02,18,0.10
2017,03,20,02,19,0.10
2017,03,20,02,20,0.10
2017,03,20,02,21,0.10
2017,03,20,02,22,0.20
2017,03,20,02,23,0.20
2017,03,20,02,24,0.30
2017,03,20,02,25,0.30
2017,03,20,02,26,0.40
2017,03,20,02,27,0.40
2017,03,20,02,28,0.50
2017,03,20,02,29,0.50
2017,03,20,02,30,0.60
2017,03,20,02,31,0.60
2017,03,20,02,32,0.60
2017,03,20,02,33,0.60
2017,03,20,02,34,0.60
2017,03,20,02,35,0.60
2017,03,20,02,36,0.60
2017,03,20,02,37,0.60
2017,03,20,02,38,0.60
2017,03,20,02,39,0.60
2017,03,20,02,40,0.60
2017,03,20,02,41,0.60
2017,03,20,02,42,0.50
2017,03,20,02,43,0.50
2017,03,20,02,44,0.50
2017,03,20,02,45,0.40
2017,03,20,02,46,0.40
2017,03,20,02,47,0.40
2017,03,20,02,48,0.40
2017,03,20,02,49,0.40
2017,03,20,02,50,0.40
2017,03,20,02,51,0.40
2017,03,20,02,52,0.40
2017,03,20,02,53,0.40
2017,03,20,02,54,0.40
2017,03,20,02,55,0.40
2017,03,20,02,56,0.30
2017,03,20,02,57,0.30
2017,03,20,02,58,0.30
2017,03,20,02,59,0.30
2017,03,20,03,00,0.30
2017,03,20,03,01,0.30
2017,03,20,03,02,0.30
2017,03,20,03,03,0.30
2017,03,20,03,04,0.30
2017,03,20,03,05,0.30
2017,03,20,03,06,0.30
2017,03,20,03,07,0.30
2017,03,20,03,08,0.30
2017,03,20,03,09,0.30
2017,03,20,03,10,0.30
2017,03,20,03,11,0.30
2017,03,20,03,12,0.30
2017,03,20,03,13,0.30
2017,03,20,03,14,0.30
2017,03,20,03,15,0.30
2017,03,20,03,16,0.30
2017,03,20,03,17,0.30
2017,03,20,03,18,0.20
2017,03,20,03,19,0.20
2017,03,20,03,20,0.20
2017,03,20,03,21,0.20
2017,03,20,03,22,0.20
2017,03,20,03,23,0.20
2017,03,20,03,24,0.20
2017,03,20,03,25,0.20
2017,03,20,03,26,0.10
2017,03,20,03,27,0.10
2017,03,20,03,28,0.10
2017,03,20,03,29,0.10
2017,03,20,03,30,0.10
2017,03,20,03,31,0.10
2017,03,20,03,32,0.10
2017,03,20,03,33,0.10
2017,03,20,03,34,0.10
2017,03,20,03,35,0.10
2017,03,20,03,36,0.20
2017,03,20,03,37,0.20
2017,03,20,03,38,0.20
2017,03,20,03,39,0.20
2017,03,20,03,40,0.20
2017,03,20,03,41,0.20
2017,03,20,03,42,0.20
2017,03,20,03,43,0.20
2017,03,20,03,44,0.10
2017,03,20,03,45,0.10
2017,03,20,03,46,0.10
2017,03,20,03,47,0.10
2017,03,20,03,48,0.10
2017,03,20,03,49,0.10
2017,03,20,03,50,0.10
2017,03,20,03,51,0.20
2017,03,20,03,52,0.20
2017,03,20,03,53,0.20
2017,03,20,03,54,0.20
2017,03,20,03,55,0.20
2017,03,20,03,56,0.20
2017,03,20,03,57,0.20
2017,03,20,03,58,0.10
2017,03,20,03,59,0.10
2017,03,20,04,00,0.10
2017,03,20,04,01,0.20
2017,03,20,04,02,0.20
2017,03,20,04,03,0.20
2017,03,20,04,04,0.20
2017,03,20,04,05,0.20
2017,03,20,04,06,0.20
2017,03,20,04,07,0.20
2017,03,20,04,08,0.20
2017,03,20,04,09,0.10
2017,03,20,04,10,0.10
2017,03,20,04,11,0.10
2017,03,20,04,12,0.10
2017,03,20,04,13,0.10
2017,03,20,04,14,0.10
2017,03,20,04,15,0.10
2017,03,20,04,16,0.10
2017,03,20,04,17,0.10
2017,03,20,04,18,0.10
2017,03,20,04,19,0.10
2017,03,20,04,20,0.10
2017,03,20,04,21,0.00
2017,03,20,04,22,0.00
2017,03,20,04,23,0.00
2017,03,20,04,24,0.00
2017,03,20,04,25,0.00
2017,03,20,04,26,0.00
2017,03,20,04,27,0.00
2017,03,20,04,28,0.00
2017,03,20,04,29,0.00
2017,03,20,04,30,0.00
2017,03,20,04,31,0.00
2017,03,20,04,32,0.00
2017,03,20,04,33,0.00
2017,03,20,04,34,0.10
2017,03,20,04,35,0.00
2017,03,20,04,36,0.00
2017,03,20,04,37,0.00
2017,03,20,04,38,0.10
2017,03,20,04,39,0.00
2017,03,20,04,40,0.10
2017,03,20,04,41,0.00
2017,03,20,04,42,0.00
2017,03,20,04,43,0.00
2017,03,20,04,44,0.00
2017,03,20,04,45,0.00
2017,03,20,04,46,0.00
2017,03,20,04,47,0.00
2017,03,20,04,48,0.00
2017,03,20,04,49,0.00
2017,03,20,04,50,0.00
2017,03,20,04,51,0.10
2017,03,20,04,52,0.10
2017,03,20,04,53,0.10
2017,03,20,04,54,0.10
2017,03,20,04,55,0.10
2017,03,20,04,56,0.10
2017,03,20,04,57,0.10
2017,03,20,04,58,0.10
2017,03,20,04,59,0.10
2017,03,20,05,00,0.10
2017,03,20,05,01,0.10
2017,03,20,05,02,0.10
2017,03,20,05,03,0.10
2017,03,20,05,04,0.10
2017,03,20,05,05,0.10
2017,03,20,05,06,0.10
2017,03,20,05,07,0.10
2017,03,20,05,08,0.10
2017,03,20,05,09,0.10
2017,03,20,05,10,0.10
2017,03,20,05,11,0.10
2017,03,20,05,12,0.10
2017,03,20,05,13,0.10
2017,03,20,05,14,0.10
2017,03,20,05,15,0.10
2017,03,20,05,16,0.10
2017,03,20,05,17,0.10
2017,03,20,05,18,0.10
2017,03,20,05,19,0.10
2017,03,20,05,20,0.10
2017,03,20,05,21,0.10
2017,03,20,05,22,0.10
2017,03,20,05,23,0.10
2017,03,20,05,24,0.10
2017,03,20,05,25,0.10
2017,03,20,05,26,0.10
2017,03,20,05,27,0.10
2017,03,20,05,28,0.10
2017,03,20,05,29,0.10
2017,03,20,05,30,0.10
2017,03,20,05,31,0.10
2017,03,20,05,32,0.10
2017,03,20,05,33,0.10
2017,03,20,05,34,0.10
2017,03,20,05,35,0.10
2017,03,20,05,36,0.10
2017,03,20,05,37,0.10
2017,03,20,05,38,0.10
2017,03,20,05,39,0.10
2017,03,20,05,40,0.10
2017,03,20,05,41,0.10
2017,03,20,05,42,0.10
2017,03,20,05,43,0.10
2017,03,20,05,44,0.10
2017,03,20,05,45,0.10
2017,03,20,05,46,0.10
2017,03,20,05,47,0.10
2017,03,20,05,48,0.00
2017,03,20,05,49,0.00
2017,03,20,05,50,0.00
2017,03,20,05,51,0.00
2017,03,20,05,52,-0.10
2017,03,20,05,53,-0.10
2017,03,20,05,54,-0.10
2017,03,20,05,55,-0.10
2017,03,20,05,56,-0.20
2017,03,20,05,57,-0.20
2017,03,20,05,58,-0.20
2017,03,20,05,59,-0.10
2017,03,20,06,00,-0.10
2017,03,20,06,01,-0.10
2017,03,20,06,02,-0.10
2017,03,20,06,03,-0.10
2017,03,20,06,04,-0.10
2017,03,20,06,05,-0.20
2017,03,20,06,06,-0.20
2017,03,20,06,07,-0.20
2017,03,20,06,08,-0.20
2017,03,20,06,09,-0.20
2017,03,20,06,10,-0.20
2017,03,20,06,11,-0.30
2017,03,20,06,12,-0.30
2017,03,20,06,13,-0.30
2017,03,20,06,14,-0.30
2017,03,20,06,15,-0.20
2017,03,20,06,16,-0.20
2017,03,20,06,17,-0.20
2017,03,20,06,18,-0.20
2017,03,20,06,19,-0.20
2017,03,20,06,20,-0.10
2017,03,20,06,21,-0.10
2017,03,20,06,22,0.00
2017,03,20,06,23,0.00
2017,03,20,06,24,0.00
2017,03,20,06,25,0.00
2017,03,20,06,26,0.00
2017,03,20,06,27,0.00
2017,03,20,06,28,0.10
2017,03,20,06,29,0.10
2017,03,20,06,30,0.10
2017,03,20,06,31,0.10
2017,03,20,06,32,0.10
2017,03,20,06,33,0.10
2017,03,20,06,34,0.10
2017,03,20,06,35,0.10
2017,03,20,06,36,0.10
2017,03,20,06,37,0.10
2017,03,20,06,38,0.10
2017,03,20,06,39,0.10
2017,03,20,06,40,0.10
2017,03,20,06,41,0.10
2017,03,20,06,42,0.10
2017,03,20,06,43,0.10
2017,03,20,06,44,0.10
2017,03,20,06,45,0.10
2017,03,20,06,46,0.10
2017,03,20,06,47,0.10
2017,03,20,06,48,0.10
2017,03,20,06,49,0.10
2017,03,20,06,50,0.10
2017,03,20,06,51,0.10
2017,03,20,06,52,0.10
2017,03,20,06,53,0.10
2017,03,20,06,54,0.10
2017,03,20,06,55,0.10
2017,03,20,06,56,0.10
2017,03,20,06,57,0.10
2017,03,20,06,58,0.10
2017,03,20,06,59,0.10
2017,03,20,07,00,0.10
2017,03,20,07,01,0.10
2017,03,20,07,02,0.10
2017,03,20,07,03,0.20
2017,03,20,07,04,0.10
2017,03,20,07,05,0.10
2017,03,20,07,06,0.10
2017,03,20,07,07,0.10
2017,03,20,07,08,0.10
2017,03,20,07,09,0.10
2017,03,20,07,10,0.10
2017,03,20,07,11,0.10
2017,03,20,07,12,0.10
2017,03,20,07,13,0.10
2017,03,20,07,14,0.10
2017,03,20,07,15,0.10
2017,03,20,07,16,0.10
2017,03,20,07,17,0.10
2017,03,20,07,18,0.10
2017,03,20,07,19,0.10
2017,03,20,07,20,0.10
2017,03,20,07,21,0.10
2017,03,20,07,22,0.10
2017,03,20,07,23,0.10
2017,03,20,07,24,0.10
2017,03,20,07,25,0.10
2017,03,20,07,26,0.10
2017,03,20,07,27,0.10
2017,03,20,07,28,0.10
2017,03,20,07,29,0.10
2017,03,20,07,30,0.10
2017,03,20,07,31,0.10
2017,03,20,07,32,0.10
2017,03,20,07,33,0.10
2017,03,20,07,34,0.10
2017,03,20,07,35,0.10
2017,03,20,07,36,0.10
2017,03,20,07,37,0.20
2017,03,20,07,38,0.20
2017,03,20,07,39,0.20
2017,03,20,07,40,0.20
2017,03,20,07,41,0.20
2017,03,20,07,42,0.20
2017,03,20,07,43,0.20
2017,03,20,07,44,0.20
2017,03,20,07,45,0.20
2017,03,20,07,46,0.20
2017,03,20,07,47,0.20
2017,03,20,07,48,0.20
2017,03,20,07,49,0.20
2017,03,20,07,50,0.20
2017,03,20,07,51,0.20
2017,03,20,07,52,0.20
2017,03,20,07,53,0.20
2017,03,20,07,54,0.20
2017,03,20,07,55,0.30
2017,03,20,07,56,0.30
2017,03,20,07,57,0.30
2017,03,20,07,58,0.30
2017,03,20,07,59,0.30
2017,03,20,08,00,0.30
2017,03,20,08,01,0.30
2017,03,20,08,02,0.40
2017,03,20,08,03,0.40
2017,03,20,08,04,0.40
2017,03,20,08,05,0.40
2017,03,20,08,06,0.40
2017,03,20,08,07,0.40
2017,03,20,08,08,0.40
2017,03,20,08,09,0.40
2017,03,20,08,10,0.40
2017,03,20,08,11,0.40
2017,03,20,08,12,0.50
2017,03,20,08,13,0.50
2017,03,20,08,14,0.50
2017,03,20,08,15,0.50
2017,03,20,08,16,0.50
2017,03,20,08,17,0.50
2017,03,20,08,18,0.60
2017,03,20,08,19,0.60
2017,03,20,08,20,0.60
2017,03,20,08,21,0.60
2017,03,20,08,22,0.60
2017,03,20,08,23,0.60
2017,03,20,08,24,0.60
2017,03,20,08,25,0.60
2017,03,20,08,26,0.60
2017,03,20,08,27,0.70
2017,03,20,08,28,0.70
2017,03,20,08,29,0.70
2017,03,20,08,30,0.70
2017,03,20,08,31,0.70
2017,03,20,08,32,0.70
2017,03,20,08,33,0.70
2017,03,20,08,34,0.70
2017,03,20,08,35,0.70
2017,03,20,08,36,0.70
2017,03,20,08,37,0.80
2017,03,20,08,38,0.80
2017,03,20,08,39,0.80
2017,03,20,08,40,0.80
2017,03,20,08,41,0.80
2017,03,20,08,42,0.80
2017,03,20,08,43,0.80
2017,03,20,08,44,0.90
2017,03,20,08,45,0.90
2017,03,20,08,46,0.90
2017,03,20,08,47,0.90
2017,03,20,08,48,0.90
2017,03,20,08,49,1.00
2017,03,20,08,50,1.00
2017,03,20,08,51,1.00
2017,03,20,08,52,1.10
2017,03,20,08,53,1.10
2017,03,20,08,54,1.20
2017,03,20,08,55,1.20
2017,03,20,08,56,1.20
2017,03,20,08,57,1.30
2017,03,20,08,58,1.30
2017,03,20,08,59,1.30
2017,03,20,09,00,1.30
2017,03,20,09,01,1.30
2017,03,20,09,02,1.40
2017,03,20,09,03,1.40
2017,03,20,09,04,1.40
2017,03,20,09,05,1.50
2017,03,20,09,06,1.50
2017,03,20,09,07,1.50
2017,03,20,09,08,1.60
2017,03,20,09,09,1.60
2017,03,20,09,10,1.60
2017,03,20,09,11,1.60
2017,03,20,09,12,1.60
2017,03,20,09,13,1.70
2017,03,20,09,14,1.70
2017,03,20,09,15,1.70
2017,03,20,09,16,1.80
2017,03,20,09,17,1.80
2017,03,20,09,18,1.80
2017,03,20,09,19,1.80
2017,03,20,09,20,1.80
2017,03,20,09,21,1.90
2017,03,20,09,22,1.90
2017,03,20,09,23,1.90
2017,03,20,09,24,2.00
2017,03,20,09,25,2.00
2017,03,20,09,26,2.10
2017,03,20,09,27,2.10
2017,03,20,09,28,2.10
2017,03,20,09,29,2.10
2017,03,20,09,30,2.10
2017,03,20,09,31,2.20
2017,03,20,09,32,2.20
2017,03,20,09,33,2.20
2017,03,20,09,34,2.20
2017,03,20,09,35,2.20
2017,03,20,09,36,2.20
2017,03,20,09,37,2.20
2017,03,20,09,38,2.20
2017,03,20,09,39,2.20
2017,03,20,09,40,2.20
2017,03,20,09,41,2.20
2017,03,20,09,42,2.20
2017,03,20,15,42,11.20
2017,03,20,15,43,11.20
2017,03,20,15,44,11.20
2017,03,20,15,45,11.30
2017,03,20,15,46,11.30
2017,03,20,15,47,11.40
2017,03,20,15,48,11.40
2017,03,20,15,49,11.40
2017,03,20,15,50,11.50
2017,03,20,15,51,11.50
2017,03,20,15,52,11.50
2017,03,20,15,53,11.50
2017,03,20,15,54,11.50
2017,03,20,15,55,11.40
2017,03,20,15,56,11.30
2017,03,20,15,57,11.30
2017,03,20,15,58,11.30
2017,03,20,15,59,11.20
2017,03,20,16,00,11.30
2017,03,20,16,01,11.30
2017,03,20,16,02,11.30
2017,03,20,16,03,11.30
2017,03,20,16,04,11.30
2017,03,20,16,05,11.30
2017,03,20,16,06,11.30
2017,03,20,16,07,11.30
2017,03,20,16,08,11.30
2017,03,20,16,09,11.20
2017,03,20,16,10,11.20
2017,03,20,16,11,11.30
2017,03,20,16,12,11.30
2017,03,20,16,13,11.30
2017,03,20,16,14,11.40
2017,03,20,16,15,11.40
2017,03,20,16,16,11.40
2017,03,20,16,17,11.40
2017,03,20,16,18,11.50
2017,03,20,16,19,11.50
2017,03,20,16,20,11.50
2017,03,20,16,21,11.60
2017,03,20,16,22,11.60
2017,03,20,16,23,11.60
2017,03,20,16,24,11.60
2017,03,20,16,25,11.60
2017,03,20,16,26,11.50
2017,03,20,16,27,11.50
2017,03,20,16,28,11.40
2017,03,20,16,29,11.40
2017,03,20,16,30,11.40
2017,03,20,16,31,11.30
2017,03,20,16,32,11.30
2017,03,20,16,33,11.30
2017,03,20,16,34,11.30
2017,03,20,16,35,11.20
2017,03,20,16,36,11.20
2017,03,20,16,37,11.20
2017,03,20,16,38,11.20
2017,03,20,16,39,11.20
2017,03,20,16,40,11.10
2017,03,20,16,41,11.10
2017,03,20,16,42,11.10
2017,03,20,16,43,11.10
2017,03,20,16,44,11.00
2017,03,20,16,45,10.90
2017,03,20,16,46,10.90
2017,03,20,16,47,10.80
2017,03,20,16,48,10.80
2017,03,20,16,49,10.70
2017,03,20,16,50,10.70
2017,03,20,16,51,10.70
2017,03,20,16,52,10.70
2017,03,20,16,53,10.70
2017,03,20,16,54,10.70
2017,03,20,16,55,10.70
2017,03,20,16,56,10.70
2017,03,20,16,57,10.70
2017,03,20,16,58,10.70
2017,03,20,16,59,10.70
2017,03,20,17,00,10.70
2017,03,20,17,01,10.80
2017,03,20,17,02,10.80
2017,03,20,17,03,10.80
2017,03,20,17,04,10.80
2017,03,20,17,05,10.80
2017,03,20,17,06,10.70
2017,03,20,17,07,10.70
2017,03,20,17,08,10.70
2017,03,20,17,09,10.70
2017,03,20,17,10,10.70
2017,03,20,17,11,10.70
2017,03,20,17,12,10.70
2017,03,20,17,13,10.70
2017,03,20,17,14,10.60
2017,03,20,17,15,10.50
2017,03,20,17,16,10.40
2017,03,20,17,17,10.40
2017,03,20,17,18,10.40
2017,03,20,17,19,10.40
2017,03,20,17,20,10.40
2017,03,20,17,21,10.40
2017,03,20,17,22,10.40
2017,03,20,17,23,10.40
2017,03,20,17,24,10.30
2017,03,20,17,25,10.30
2017,03,20,17,26,10.30
2017,03,20,17,27,10.30
2017,03,20,17,28,10.20
2017,03,20,17,29,10.20
2017,03,20,17,30,10.20
2017,03,20,17,31,10.10
2017,03,20,17,32,10.10
2017,03,20,17,33,10.10
2017,03,20,17,34,10.00
2017,03,20,17,35,9.90
2017,03,20,17,36,9.90
2017,03,20,17,37,9.80
2017,03,20,17,38,9.80
2017,03,20,17,39,9.70
2017,03,20,17,40,9.70
2017,03,20,17,41,9.60
2017,03,20,17,42,9.50
2017,03,20,17,43,9.50
2017,03,20,17,44,9.40
2017,03,20,17,45,9.40
2017,03,20,17,46,9.40
2017,03,20,17,47,9.30
2017,03,20,17,48,9.30
2017,03,20,17,49,9.30
2017,03,20,17,50,9.30
2017,03,20,17,51,9.30
2017,03,20,17,52,9.30
2017,03,20,17,53,9.30
2017,03,20,17,54,9.30
2017,03,20,17,55,9.30
2017,03,20,17,56,9.30
2017,03,20,17,57,9.30
2017,03,20,17,58,9.30
2017,03,20,17,59,9.20
2017,03,20,18,00,9.20
2017,03,20,18,01,9.20
2017,03,20,18,02,9.20
2017,03,20,18,03,9.20
2017,03,20,18,04,9.10
2017,03,20,18,05,9.20
2017,03,20,18,06,9.10
2017,03,20,18,07,9.10
2017,03,20,18,08,9.10
2017,03,20,18,09,9.10
2017,03,20,18,10,9.10
2017,03,20,18,11,9.10
2017,03,20,18,12,9.10
2017,03,20,18,13,9.10
2017,03,20,18,14,9.20
2017,03,20,18,15,9.20
2017,03,20,18,16,9.20
2017,03,20,18,17,9.20
2017,03,20,18,18,9.20
2017,03,20,18,19,9.20
2017,03,20,18,20,9.20
2017,03,20,18,21,9.20
2017,03,20,18,22,9.20
2017,03,20,18,23,9.20
2017,03,20,18,24,9.20
2017,03,20,18,25,9.20
2017,03,20,18,26,9.20
2017,03,20,18,27,9.20
2017,03,20,18,28,9.20
2017,03,20,18,29,9.20
2017,03,20,18,30,9.20
2017,03,20,18,31,9.10
2017,03,20,18,32,9.10
2017,03,20,18,33,9.10
2017,03,20,18,34,9.10
2017,03,20,18,35,9.10
2017,03,20,18,36,9.10
2017,03,20,18,37,9.10
2017,03,20,18,38,9.10
2017,03,20,18,39,9.10
2017,03,20,18,40,9.10
2017,03,20,18,41,9.10
2017,03,20,18,42,9.10
2017,03,20,18,43,9.00
2017,03,20,18,44,9.00
2017,03,20,18,45,9.00
2017,03,20,18,46,9.00
2017,03,20,18,47,9.00
2017,03,20,18,48,9.00
2017,03,20,18,49,8.90
2017,03,20,18,50,8.90
2017,03,20,18,51,8.90
2017,03,20,18,52,8.90
2017,03,20,18,53,8.90
2017,03,20,18,54,8.90
2017,03,20,18,55,8.90
2017,03,20,18,56,8.80
2017,03,20,18,57,8.80
2017,03,20,18,58,8.80
2017,03,20,18,59,8.80
2017,03,20,19,00,8.80
2017,03,20,19,01,8.80
2017,03,20,19,02,8.80
2017,03,20,19,03,8.80
2017,03,20,19,04,8.80
2017,03,20,19,05,8.70
2017,03,20,19,06,8.70
2017,03,20,19,07,8.70
2017,03,20,19,08,8.70
2017,03,20,19,09,8.60
2017,03,20,19,10,8.60
2017,03,20,19,11,8.50
2017,03,20,19,12,8.40
2017,03,20,19,13,8.40
2017,03,20,19,14,8.30
2017,03,20,19,15,8.30
2017,03,20,19,16,8.10
2017,03,20,19,17,8.10
2017,03,20,19,18,8.00
2017,03,20,19,19,7.90
2017,03,20,19,20,7.80
2017,03,20,19,21,7.70
2017,03,20,19,22,7.70
2017,03,20,19,23,7.60
2017,03,20,19,24,7.60
2017,03,20,19,25,7.60
2017,03,20,19,26,7.50
2017,03,20,19,27,7.50
2017,03,20,19,28,7.50
2017,03,20,19,29,7.50
2017,03,20,19,30,7.40
2017,03,20,19,31,7.40
2017,03,20,19,32,7.40
2017,03,20,19,33,7.40
2017,03,20,19,34,7.40
2017,03,20,19,35,7.40
2017,03,20,19,36,7.40
2017,03,20,19,37,7.40
2017,03,20,19,38,7.40
2017,03,20,19,39,7.40
2017,03,20,19,40,7.40
2017,03,20,19,41,7.40
2017,03,20,19,42,7.30
2017,03,20,19,43,7.30
2017,03,20,19,44,7.30
2017,03,20,19,45,7.30
2017,03,20,19,46,7.30
2017,03,20,19,47,7.20
2017,03,20,19,48,7.20
2017,03,20,19,49,7.20
2017,03,20,19,50,7.20
2017,03,20,19,51,7.20
2017,03,20,19,52,7.20
2017,03,20,19,53,7.10
2017,03,20,19,54,7.10
2017,03,20,19,55,7.10
2017,03,20,19,56,7.00
2017,03,20,19,57,7.00
2017,03,20,19,58,7.00
2017,03,20,19,59,6.90
2017,03,20,20,00,6.90
2017,03,20,20,01,6.90
2017,03,20,20,02,6.90
2017,03,20,20,03,6.90
2017,03,20,20,04,6.80
2017,03,20,20,05,6.80
2017,03,20,20,06,6.80
2017,03,20,20,07,6.80
2017,03,20,20,08,6.70
2017,03,20,20,09,6.70
2017,03,20,20,10,6.70
2017,03,20,20,11,6.70
2017,03,20,20,12,6.60
2017,03,20,20,13,6.60
2017,03,20,20,14,6.60
2017,03,20,20,15,6.60
2017,03,20,20,16,6.60
2017,03,20,20,17,6.60
2017,03,20,20,18,6.50
2017,03,20,20,19,6.50
2017,03,20,20,20,6.50
2017,03,20,20,21,6.50
2017,03,20,20,22,6.40
2017,03,20,20,23,6.40
2017,03,20,20,24,6.40
2017,03,20,20,25,6.40
2017,03,20,20,26,6.40
2017,03,20,20,27,6.40
2017,03,20,20,28,6.40
2017,03,20,20,29,6.40
2017,03,20,20,30,6.40
2017,03,20,20,31,6.40
2017,03,20,20,32,6.40
2017,03,20,20,33,6.40
2017,03,20,20,34,6.40
2017,03,20,20,35,6.30
2017,03,20,20,36,6.30
2017,03,20,20,37,6.30
2017,03,20,20,38,6.30
2017,03,20,20,39,6.30
2017,03,20,20,40,6.20
2017,03,20,20,41,6.20
2017,03,20,20,42,6.20
2017,03,20,20,43,6.20
2017,03,20,20,44,6.20
2017,03,20,20,45,6.10
2017,03,20,20,46,6.10
2017,03,20,20,47,6.10
2017,03,20,20,48,6.10
2017,03,20,20,49,6.00
2017,03,20,20,50,6.00
2017,03,20,20,51,5.90
2017,03,20,20,52,5.90
2017,03,20,20,53,5.90
2017,03,20,20,54,5.90
2017,03,20,20,55,5.80
2017,03,20,20,56,5.80
2017,03,20,20,57,5.80
2017,03,20,20,58,5.80
2017,03,20,20,59,5.70
2017,03,20,21,00,5.70
2017,03,20,21,01,5.70
2017,03,20,21,02,5.70
2017,03,20,21,03,5.70
2017,03,20,21,04,5.60
2017,03,20,21,05,5.60
2017,03,20,21,06,5.50
2017,03,20,21,07,5.50
2017,03,20,21,08,5.40
2017,03,20,21,09,5.40
2017,03,20,21,10,5.40
2017,03,20,21,11,5.40
2017,03,20,21,12,5.30
2017,03,20,21,13,5.30
2017,03,20,21,14,5.30
2017,03,20,21,15,5.30
2017,03,20,21,16,5.30
2017,03,20,21,17,5.20
2017,03,20,21,18,5.20
2017,03,20,21,19,5.20
2017,03,20,21,20,5.20
2017,03,20,21,21,5.20
2017,03,20,21,22,5.20
2017,03,20,21,23,5.20
2017,03,20,21,24,5.20
2017,03,20,21,25,5.10
2017,03,20,21,26,5.10
2017,03,20,21,27,5.10
2017,03,20,21,28,5.10
2017,03,20,21,29,5.10
2017,03,20,21,30,5.00
2017,03,20,21,31,5.00
2017,03,20,21,32,4.90
2017,03,20,21,33,4.90
2017,03,20,21,34,4.90
2017,03,20,21,35,4.90
2017,03,20,21,36,4.80
2017,03,20,21,37,4.80
2017,03,20,21,38,4.80
2017,03,20,21,39,4.80
2017,03,20,21,40,4.80
2017,03,20,21,41,4.80
2017,03,20,21,42,4.80
2017,03,20,21,43,4.80
2017,03,20,21,44,4.80
2017,03,20,21,45,4.80
2017,03,20,21,46,4.70
2017,03,20,21,47,4.70
2017,03,20,21,48,4.70
2017,03,20,21,49,4.70
2017,03,20,21,50,4.70
2017,03,20,21,51,4.70
2017,03,20,21,52,4.70
2017,03,20,21,53,4.70
2017,03,20,21,54,4.70
2017,03,20,21,55,4.60
2017,03,20,21,56,4.60
2017,03,20,21,57,4.60
2017,03,20,21,58,4.60
2017,03,20,21,59,4.60
2017,03,20,22,00,4.60
2017,03,20,22,01,4.60
2017,03,20,22,02,4.50
2017,03,20,22,03,4.50
2017,03,20,22,04,4.50
2017,03,20,22,05,4.50
2017,03,20,22,06,4.50
2017,03,20,22,07,4.40
2017,03,20,22,08,4.40
2017,03,20,22,09,4.40
2017,03,20,22,10,4.40
2017,03,20,22,11,4.40
2017,03,20,22,12,4.40
2017,03,20,22,13,4.40
2017,03,20,22,14,4.40
2017,03,20,22,15,4.40
2017,03,20,22,16,4.40
2017,03,20,22,17,4.40
2017,03,20,22,18,4.40
2017,03,20,22,19,4.40
2017,03,20,22,20,4.40
2017,03,20,22,21,4.40
2017,03,20,22,22,4.40
2017,03,20,22,23,4.40
2017,03,20,22,24,4.40
2017,03,20,22,25,4.40
2017,03,20,22,26,4.40
2017,03,20,22,27,4.40
2017,03,20,22,28,4.40
2017,03,20,22,29,4.40
2017,03,20,22,30,4.40
2017,03,20,22,31,4.40
2017,03,20,22,32,4.40
2017,03,20,22,33,4.40
2017,03,20,22,34,4.40
2017,03,20,22,35,4.40
2017,03,20,22,36,4.40
2017,03,20,22,37,4.40
2017,03,20,22,38,4.40
2017,03,20,22,39,4.40
2017,03,20,22,40,4.40
2017,03,20,22,41,4.40
2017,03,20,22,42,4.40
2017,03,20,22,43,4.40
2017,03,20,22,44,4.40
2017,03,20,22,45,4.40
2017,03,20,22,46,4.40
2017,03,20,22,47,4.40
2017,03,20,22,48,4.40
2017,03,20,22,49,4.40
2017,03,20,22,50,4.40
2017,03,20,22,51,4.40
2017,03,20,22,52,4.40
2017,03,20,22,53,4.40
2017,03,20,22,54,4.40
2017,03,20,22,55,4.40
2017,03,20,22,56,4.40
2017,03,20,22,57,4.40
2017,03,20,22,58,4.40
2017,03,20,22,59,4.40
2017,03,20,23,00,4.40
2017,03,20,23,01,4.40
2017,03,20,23,02,4.40
2017,03,20,23,03,4.40
2017,03,20,23,04,4.40
2017,03,20,23,05,4.40
2017,03,20,23,06,4.40
2017,03,20,23,07,4.40
2017,03,20,23,08,4.40
2017,03,20,23,09,4.40
2017,03,20,23,10,4.40
2017,03,20,23,11,4.40
2017,03,20,23,12,4.40
2017,03,20,23,13,4.40
2017,03,20,23,14,4.40
2017,03,20,23,15,4.40
2017,03,20,23,16,4.40
2017,03,20,23,17,4.40
2017,03,20,23,18,4.40
2017,03,20,23,19,4.40
2017,03,20,23,20,4.40
2017,03,20,23,21,4.40
2017,03,20,23,22,4.40
2017,03,20,23,23,4.40
2017,03,20,23,24,4.40
2017,03,20,23,25,4.40
2017,03,20,23,26,4.30
2017,03,20,23,27,4.30
2017,03,20,23,28,4.30
2017,03,20,23,29,4.30
2017,03,20,23,30,4.30
2017,03,20,23,31,4.30
2017,03,20,23,32,4.30
2017,03,20,23,33,4.30
2017,03,20,23,34,4.30
2017,03,20,23,35,4.30
2017,03,20,23,36,4.30
2017,03,20,23,37,4.30
2017,03,20,23,38,4.30
2017,03,20,23,39,4.30
2017,03,20,23,40,4.30
2017,03,20,23,41,4.30
2017,03,20,23,42,4.30
2017,03,20,23,43,4.30
2017,03,20,23,44,4.30
2017,03,20,23,45,4.30
2017,03,20,23,46,4.40
2017,03,20,23,47,4.40
2017,03,20,23,48,4.40
2017,03,20,23,49,4.50
2017,03,20,23,50,4.50
2017,03,20,23,51,4.50
2017,03,20,23,52,4.50
2017,03,20,23,53,4.60
2017,03,20,23,54,4.60
2017,03,20,23,55,4.60
2017,03,20,23,56,4.70
2017,03,20,23,57,4.70
2017,03,20,23,58,4.70
2017,03,20,23,59,4.70
